Theta_e
315 314 313 312 311 310 309 309 309 308 309 308 306 304 303 300 301 305 307 308 307 304 305 304 306 307 310 308 308 311 313 312 313 312 314 310 307 303 304 306 302 301 302 302 304
313 314 313 312 311 310 308 308 309 309 309 307 304 303 302 301 303 303 304 302 304 304 305 303 305 307 306 308 306 311 312 313 309 309 311 308 307 302 306 304 303 302 302 301 302
312 313 313 312 311 309 308 308 308 309 308 307 303 302 301 301 305 300 299 299 300 302 303 302 303 305 308 305 306 309 312 308 307 308 308 306 304 302 302 304 301 301 302 300 301
313 313 312 311 311 310 308 308 308 308 309 307 302 302 300 303 301 299 299 299 299 301 302 303 303 307 307 306 306 308 305 307 305 305 307 306 304 303 302 303 302 299 302 301 300
312 312 311 310 310 309 308 308 307 307 309 307 303 301 302 303 301 298 298 299 300 302 303 303 304 306 305 304 306 304 304 303 303 303 303 304 304 304 303 301 298 300 302 301 301
309 310 309 309 309 308 307 308 307 307 308 305 302 301 302 301 298 297 299 299 301 302 303 304 304 303 303 303 305 302 302 303 302 303 302 304 304 303 303 299 300 302 302 301 301
310 309 308 307 307 307 307 307 307 306 307 305 302 303 300 301 298 299 300 300 300 302 302 302 303 304 302 303 301 301 303 303 303 303 303 303 306 303 301 300 301 302 302 301 302
310 309 308 307 306 307 306 307 307 306 305 303 302 303 297 300 298 299 301 301 301 302 302 304 304 301 303 300 302 304 302 303 303 303 302 303 307 306 298 299 300 300 300 301 301
307 306 306 306 306 306 306 306 306 306 304 301 302 301 299 297 297 298 300 300 301 301 303 304 303 301 302 301 301 301 301 305 304 301 301 302 304 303 297 298 298 298 298 299 299
307 306 305 306 306 306 306 306 305 303 301 303 303 298 297 297 297 297 299 301 301 302 304 305 302 299 298 301 304 302 304 307 306 302 300 300 300 301 299 298 298 296 295 296 298
309 306 305 305 305 305 306 305 299 299 302 295 296 297 297 297 297 298 298 300 301 302 301 305 301 301 302 304 307 302 307 308 305 301 303 301 300 300 301 298 297 296 295 295 297
308 306 305 305 305 306 306 304 300 299 298 298 298 297 297 297 297 297 298 300 301 300 301 300 302 302 303 307 309 307 308 306 302 302 301 303 302 301 301 301 300 299 297 296 295
309 307 304 303 305 306 305 305 300 299 299 299 297 297 296 297 297 296 297 299 300 302 300 301 302 303 307 305 307 308 306 305 306 301 301 301 304 304 303 301 301 300 301 299 298
309 307 305 304 305 306 305 303 305 300 296 299 298 298 296 297 298 297 297 299 300 301 302 303 300 303 305 305 304 306 305 304 302 303 305 303 308 305 308 304 303 303 301 301 298
310 307 304 304 304 304 304 303 305 299 300 299 297 296 296 296 295 296 296 298 300 301 301 301 300 302 305 305 305 305 304 303 304 305 304 305 303 305 306 310 306 305 303 301 300
309 307 304 304 306 305 304 305 298 298 298 298 295 296 297 297 296 295 297 298 299 299 297 297 297 298 300 298 300 302 304 302 300 300 303 305 305 306 307 310 309 307 303 303 299
308 306 304 303 304 305 304 298 295 298 300 298 296 296 296 296 296 296 297 297 299 300 300 298 298 296 297 300 300 298 303 302 304 300 307 301 301 309 305 305 307 308 305 302 299
307 306 305 303 303 302 300 297 296 298 301 298 297 296 297 296 296 296 295 296 296 297 298 301 302 297 297 300 303 298 302 306 304 302 305 301 307 307 303 303 303 305 304 304 300
306 306 306 304 303 301 295 297 298 300 301 298 297 297 297 297 295 296 294 294 296 297 301 301 301 295 296 295 298 300 301 302 300 292 301 302 301 303 304 303 303 304 303 303 303
307 306 306 305 302 300 298 298 296 301 298 297 299 296 296 296 296 294 294 295 297 297 296 299 298 294 294 294 295 298 298 306 301 304 305 300 300 307 305 307 301 302 303 300 301
306 306 305 305 303 301 303 298 298 300 299 298 300 298 297 297 297 296 296 296 297 297 302 297 295 295 295 295 297 297 299 295 300 301 303 299 303 301 304 306 307 303 300 300 297
305 306 304 303 303 302 303 296 300 301 300 300 301 301 298 297 297 297 297 296 298 300 301 300 293 294 295 289 289 291 299 301 305 297 295 298 304 303 304 304 305 305 295 295 295
305 302 302 302 304 303 300 301 299 300 300 300 301 303 300 297 298 297 297 297 298 299 301 298 294 294 296 293 290 290 291 294 293 297 300 302 303 300 301 300 302 303 298 294 295
300 302 298 298 303 303 303 298 300 298 301 300 301 300 300 299 299 297 298 297 297 299 303 301 294 297 300 298 295 295 294 297 303 305 301 303 304 304 303 302 302 300 299 294 293
300 301 299 301 304 303 301 299 299 298 300 301 301 301 301 299 301 300 297 295 295 300 296 298 301 298 297 297 295 294 295 298 302 302 303 299 303 305 301 301 302 300 299 299 296
299 300 296 297 303 304 303 301 300 298 300 301 301 301 302 300 302 300 295 294 297 294 293 289 297 293 297 296 298 299 296 297 299 301 295 292 298 299 302 301 302 301 300 301 301
301 299 302 302 303 304 302 302 299 299 299 301 302 303 303 306 305 302 303 299 297 296 295 294 295 295 297 292 297 300 297 295 294 292 300 302 302 298 299 299 299 299 298 297 296
Wind_Speed
7 7 4 3 3 2 1 1 2 3 4 4 7 8 11 10 5 1 1 3 6 12 5 3 2 2 2 3 5 3 5 3 6 7 4 5 5 1 1 5 3 3 2 3 29
6 6 6 4 3 2 3 1 2 3 5 5 6 7 9 9 4 1 1 8 9 3 0 4 2 1 3 2 4 5 4 8 2 4 5 5 4 8 4 3 1 2 6 18 31
8 7 6 5 4 3 3 3 3 4 6 6 6 7 8 6 2 1 5 8 4 2 2 0 2 0 4 4 4 2 5 5 2 1 1 7 5 3 8 4 7 8 8 15 21
6 7 6 6 5 4 4 3 4 5 8 7 6 7 8 1 4 1 8 5 1 2 2 1 1 3 3 4 2 6 3 2 1 3 4 8 7 5 6 5 2 8 20 16 15
6 6 6 5 5 5 4 4 4 6 8 7 7 8 1 2 4 4 6 1 2 2 0 1 3 4 6 5 3 4 3 3 3 5 5 5 3 3 6 4 4 14 15 12 15
7 7 6 4 4 7 7 6 5 5 7 6 5 8 1 2 1 4 3 1 2 2 1 3 2 2 7 4 3 3 5 4 3 2 3 4 1 1 5 6 7 11 11 9 14
9 8 8 7 9 9 7 7 6 5 6 5 3 5 2 4 0 1 2 2 2 2 2 2 0 4 4 6 5 5 5 4 2 0 1 1 5 9 4 7 10 9 8 8 16
13 10 9 9 7 10 8 8 6 8 7 3 3 3 5 2 2 1 2 4 4 3 4 4 8 7 4 5 5 3 4 3 2 4 1 4 8 3 10 10 10 10 8 9 12
12 10 8 11 10 9 7 6 7 9 6 2 0 0 6 1 1 0 1 3 5 5 5 4 5 4 3 5 5 5 3 4 3 7 3 4 6 4 5 9 9 9 9 9 9
14 11 6 12 12 11 7 6 6 4 3 2 2 2 2 2 2 1 2 3 3 4 4 5 6 4 4 4 6 7 4 4 5 7 4 4 11 5 5 7 10 9 9 10 11
17 12 6 14 14 13 13 3 2 2 4 6 3 1 2 2 2 1 2 3 3 5 5 3 5 7 13 6 1 6 4 5 1 2 4 7 7 8 8 6 10 10 10 11 14
19 15 8 15 15 15 13 4 4 2 3 7 2 1 3 4 3 0 1 3 3 5 6 5 6 6 3 4 1 3 4 2 2 2 1 2 12 9 9 9 11 12 11 14 7
21 17 10 17 15 15 15 10 5 1 2 4 5 3 4 7 4 7 6 4 3 5 6 7 2 3 6 5 4 1 5 4 1 2 1 4 9 6 7 7 7 11 13 11 15
23 18 12 18 10 14 7 21 4 1 4 5 5 5 5 6 2 2 4 4 2 9 7 2 1 5 4 4 6 4 4 5 7 4 3 1 5 6 5 10 9 17 14 16 14
26 22 18 24 4 13 6 15 8 2 1 4 3 2 4 5 6 2 1 2 8 7 6 6 4 3 3 3 3 4 3 6 4 4 4 2 2 8 2 6 10 17 15 15 15
27 24 21 26 4 14 8 16 5 4 8 5 4 4 5 1 2 3 3 1 4 4 5 3 2 2 3 3 3 7 7 8 5 3 3 7 6 6 6 9 7 7 11 15 12
29 26 27 24 8 9 20 10 3 5 1 7 6 7 3 4 3 3 6 6 8 6 5 1 1 1 3 5 5 6 6 3 3 2 8 2 1 8 7 9 8 10 9 8 8
30 27 28 25 21 21 14 3 6 7 7 3 5 8 7 6 3 6 5 4 6 4 4 7 3 8 3 3 7 5 6 6 8 5 4 3 8 7 8 6 8 8 7 4 7
31 30 24 27 25 27 5 6 7 7 7 9 5 5 5 5 6 5 8 6 8 9 7 5 3 2 3 1 1 5 3 4 7 2 3 3 8 10 7 10 9 9 5 6 4
30 20 22 29 23 17 5 15 5 3 7 4 8 5 10 10 7 9 10 6 7 12 3 7 4 2 1 0 1 4 0 3 2 3 4 5 6 6 3 10 5 8 9 5 1
20 7 19 34 26 5 12 9 7 6 6 7 7 6 6 9 10 7 7 3 6 9 8 5 5 2 1 7 8 3 2 2 3 4 6 1 6 7 6 4 6 7 8 9 5
11 8 32 40 10 5 17 6 5 5 3 6 5 3 8 10 8 8 14 5 7 10 10 4 5 4 6 2 1 1 4 6 5 6 2 3 8 3 5 3 3 4 4 2 3
9 4 31 33 13 12 6 20 3 4 6 8 8 5 4 8 4 7 7 2 6 8 14 9 2 3 5 4 3 4 5 2 3 2 7 6 7 1 2 1 1 4 3 3 4
5 6 4 5 12 19 16 8 24 6 4 4 5 4 4 3 2 7 4 2 1 2 3 8 3 8 11 6 6 7 7 7 4 4 6 11 2 1 4 4 3 5 5 4 4
5 5 5 11 18 19 20 15 21 12 6 8 4 6 7 4 4 4 3 2 5 3 3 4 6 4 1 4 4 5 8 19 18 17 10 5 12 5 7 7 5 6 6 7 4
6 4 2 6 17 18 19 18 23 22 11 7 6 9 5 6 6 7 7 3 5 2 3 2 1 2 1 2 2 2 5 14 21 15 6 3 6 7 2 2 3 4 6 5 5
8 5 6 13 18 16 16 19 19 10 16 4 10 6 6 9 8 5 5 5 6 8 5 5 5 3 4 1 3 8 11 11 6 5 14 17 16 1 3 8 8 7 8 8 7
Wind_Direction
222 216 211 225 256 296 8 245 317 287 294 312 327 343 348 342 330 293 228 289 311 309 309 289 190 122 71 56 32 95 69 154 176 150 188 180 133 17 78 110 63 14 132 278 165
225 212 208 226 224 287 323 288 326 293 304 304 319 339 347 347 344 317 277 316 311 295 220 46 80 49 45 49 15 76 110 196 150 159 181 166 134 152 126 118 142 32 38 133 157
223 220 217 196 204 269 293 270 287 301 309 305 314 332 343 346 1 256 328 321 322 190 209 63 291 304 68 38 10 41 156 157 177 197 138 136 120 142 127 228 208 194 172 158 162
207 207 195 196 210 233 261 275 286 310 314 308 311 329 340 21 160 294 329 322 254 195 250 190 225 85 91 127 52 91 37 73 112 330 147 160 129 161 188 210 214 186 164 168 175
198 193 198 214 231 246 272 259 285 302 318 312 318 334 26 69 258 326 335 340 145 161 187 208 134 119 136 125 85 89 160 64 68 56 68 101 113 179 230 203 67 144 158 176 182
197 202 204 218 234 247 258 265 274 292 306 306 325 340 334 217 172 340 348 99 126 112 88 23 100 114 103 68 65 98 96 98 43 60 58 123 216 356 230 140 129 153 177 184 188
210 209 219 231 246 250 257 255 261 275 286 300 329 358 325 237 11 46 63 89 115 123 110 45 69 55 114 100 166 135 75 22 22 125 108 203 254 230 169 160 162 182 185 191 203
207 214 219 236 234 231 243 253 248 279 277 275 318 327 238 255 261 138 124 93 97 125 123 79 95 98 68 117 61 64 65 119 239 159 7 98 266 251 170 160 188 192 194 200 210
207 215 226 218 207 220 218 232 273 284 265 223 3 135 277 160 166 349 127 114 102 112 110 78 71 80 58 91 42 10 195 207 276 204 132 164 262 343 159 171 197 205 205 210 219
213 210 242 206 195 194 204 225 263 279 250 212 273 34 255 211 142 141 141 118 101 103 69 56 55 77 31 83 195 189 196 213 216 212 171 180 261 288 205 199 214 214 215 216 217
220 212 239 197 197 185 178 189 46 355 215 197 208 74 147 142 113 100 134 139 113 57 134 45 93 189 201 179 95 140 146 169 271 179 143 223 270 245 228 222 233 230 222 223 224
218 209 208 198 198 192 190 162 196 142 288 226 193 120 139 165 114 182 167 141 158 153 121 43 219 216 146 190 94 138 124 176 347 99 130 360 267 255 224 229 217 222 225 225 212
215 206 195 191 197 196 198 192 121 148 144 225 191 177 208 161 190 190 154 152 135 133 170 156 216 157 143 166 159 139 163 184 157 120 270 333 293 244 240 224 211 231 226 220 211
212 203 187 177 191 205 205 203 220 168 59 211 212 220 151 143 250 157 189 153 144 177 145 193 18 169 140 180 133 177 177 130 129 107 213 74 266 279 246 243 211 234 222 225 211
207 196 185 184 187 173 215 192 192 213 347 132 157 129 153 171 134 244 216 97 157 149 126 213 152 148 158 160 138 194 106 123 119 92 57 218 61 269 306 261 240 239 230 224 214
205 195 184 190 198 207 191 156 170 65 237 159 125 159 126 126 112 139 149 35 134 99 50 103 64 61 108 73 21 147 78 48 56 92 299 194 152 250 198 211 251 241 230 224 204
205 195 189 192 207 205 167 141 82 194 55 178 174 159 146 152 158 162 169 173 160 127 176 90 37 314 160 85 12 60 81 19 345 4 235 7 23 251 257 245 223 245 265 243 197
202 196 196 198 191 173 161 53 189 190 188 138 117 116 169 156 195 164 129 206 240 104 124 151 231 173 165 180 172 196 151 160 196 198 246 34 229 243 231 280 260 272 269 289 215
201 193 191 202 192 181 117 209 218 194 157 141 104 119 209 205 148 144 192 208 210 186 147 134 181 27 61 50 49 202 201 165 105 337 49 226 289 291 282 266 252 256 266 264 234
183 184 197 196 180 170 175 224 221 193 118 158 165 161 173 181 154 176 174 200 206 187 145 196 93 355 81 74 30 153 276 80 9 166 252 274 280 237 292 248 247 245 234 242 236
177 196 183 186 176 178 206 225 222 210 154 159 188 147 180 170 179 191 202 253 210 182 143 136 106 293 141 210 179 147 208 33 134 149 188 223 261 222 234 297 296 255 229 211 211
160 199 166 168 186 197 214 183 228 201 180 205 160 135 166 164 167 206 203 227 161 148 171 179 113 149 213 260 160 124 215 177 149 239 225 156 256 210 245 294 285 299 258 206 198
178 162 174 168 195 205 188 214 277 204 184 180 198 197 164 163 152 195 186 19 165 160 160 185 208 84 352 352 4 219 212 171 126 78 204 151 254 256 223 109 310 114 111 119 120
144 162 155 213 196 199 191 197 216 218 209 177 168 126 117 134 225 175 160 26 349 113 107 136 133 181 210 198 144 190 190 192 166 186 204 229 217 188 191 178 157 96 108 115 116
168 185 173 191 195 191 179 184 199 205 204 176 204 195 161 131 130 145 128 30 20 40 51 128 206 154 352 137 133 176 181 187 204 208 203 231 211 210 206 190 189 134 117 110 130
163 159 119 183 193 192 187 200 202 203 161 205 161 175 155 147 190 177 137 185 182 32 126 358 190 101 290 49 113 244 201 204 218 224 287 148 272 229 244 76 169 138 145 161 198
137 172 161 166 183 187 203 198 202 170 220 176 168 118 124 117 83 93 121 131 157 150 164 150 140 107 243 53 86 292 204 185 193 207 214 227 222 161 214 218 220 224 207 218 232